This is the latest recevied weather packets stored in our database for station/object NorthRyde. If no packets are shown the sender has not sent any weather packets the latest 10 day(s).
| Time | Temp. | Humidity | Pressure | Rain* | Wind** | Luminosity | Snow |
|---|---|---|---|---|---|---|---|
| 1777691698 | 23.89° C | 70% | 1024.3 hPa | 0 mm | - | 378 W/m² | - |
| 1777691632 | 23.33° C | 70% | 1024.3 hPa | 0 mm | - | 311 W/m² | - |
| 1777691567 | 23.33° C | 69% | 1024.3 hPa | 0 mm | - | 294 W/m² | - |
| 1777691501 | 23.33° C | 70% | 1024.4 hPa | 0 mm | - | 288 W/m² | - |
| 1777691443 | 23.89° C | 69% | 1024.3 hPa | 0 mm | - | 292 W/m² | - |
| 1777691381 | 23.89° C | 69% | 1024.3 hPa | 0 mm | - | 294 W/m² | - |
| 1777691318 | 23.89° C | 69% | 1024.3 hPa | 0 mm | - | 297 W/m² | - |
| 1777691261 | 23.89° C | 69% | 1024.3 hPa | 0 mm | - | 327 W/m² | - |
| 1777691198 | 23.89° C | 69% | 1024.3 hPa | 0 mm | - | 308 W/m² | - |
| 1777691139 | 23.89° C | 69% | 1024.4 hPa | 0 mm | - | 343 W/m² | - |
| 1777691079 | 23.89° C | 70% | 1024.5 hPa | 0 mm | - | 385 W/m² | - |
| 1777691018 | 23.89° C | 70% | 1024.5 hPa | 0 mm | - | 311 W/m² | - |
| 1777690957 | 23.89° C | 70% | 1024.4 hPa | 0 mm | - | 315 W/m² | - |
| 1777690899 | 23.89° C | 70% | 1024.3 hPa | 0 mm | - | 355 W/m² | - |
| 1777690841 | 23.89° C | 71% | 1024.4 hPa | 0 mm | - | 355 W/m² | - |
| 1777690778 | 23.33° C | 71% | 1024.6 hPa | 0 mm | - | 661 W/m² | - |
| 1777690717 | 23.33° C | 72% | 1024.5 hPa | 0 mm | - | 661 W/m² | - |
| 1777690659 | 23.33° C | 73% | 1024.6 hPa | 0 mm | - | 729 W/m² | - |
| 1777690599 | 23.33° C | 73% | 1024.7 hPa | 0 mm | - | 729 W/m² | - |
| 1777690552 | 23.33° C | 73% | 1024.7 hPa | 0 mm | - | 729 W/m² | - |
| 1777690477 | 22.78° C | 73% | 1024.7 hPa | 0 mm | - | 325 W/m² | - |
| 1777690419 | 22.78° C | 73% | 1024.8 hPa | 0 mm | - | 299 W/m² | - |
| 1777690356 | 22.78° C | 73% | 1024.7 hPa | 0 mm | - | 306 W/m² | - |
| 1777690299 | 22.78° C | 73% | 1024.7 hPa | 0 mm | - | 329 W/m² | - |
| 1777690241 | 22.78° C | 73% | 1024.8 hPa | 0 mm | - | 369 W/m² | - |
* Rain latest hour (hover to see other rain measurements)
** Current wind speed in m/s (hover to see current wind gust speed)